TURKSAT 5A

Last updated on Sun Jun 21 2026 00:03:08 GMT+0000 (Coordinated Universal Time)

1 47306U 21001A 26171.25552352 .00000149 00000+0 00000+0 0 9992 2 47306 0.0171 61.0853 0000186 297.9813 32.3204 1.00271694 19990
UTC large
Height (km)
Speed (km/s)
/
Latitude / Longitude
Inclination (degrees)
Orbital Period (minutes)
Azimuth
Elevation
Range (km)
Doppler Factor

Next 0 passes for location: London (51.5072 / 0.1276)

No passes found over London.
TURKSAT 5A